Tracking 28790 objects as of 19-Apr-2024
HD Live streaming from Space Station
objects crossing your sky now

METEOR 2-11 DEB

Track METEOR 2-11 DEB now!
10-day predictions


NORAD ID: 40704
Int'l Code: 1984-072F
Perigee: 900.4 km
Apogee: 949.3 km
Inclination: 82.5 °
Period: 103.4 minutes
Semi major axis: 7295 km
RCS: Unknown
Launch date: July 5, 1984
Source: Commonwealth of Independent States (former USSR) (CIS)
Launch site: PLESETSK MISSILE AND SPACE COMPLEX (PKMTR)

Note: This is SATELLITE DEBRIS
Your satellite tracking list
Your tracking list is empty




NASA's NSSDC Master Catalog

Two Line Element Set (TLE):
1 40704U 84072F   24102.83822200  .00002786  00000-0  21196-2 0  9994
2 40704  82.5161 294.0691 0033553  95.1444 265.3551 13.93118764456215
Source of the keplerian elements: AFSPC